| time (UTC) | temp F | wind direction | speed MPH | gust MPH | rain 1hr in | rain 24hr in | rain mn in | humidity % | barometer mb |
| 20260902160927 | 86 | 322 | 0.0 | 1.0 | 0.00 | 0.00 | 0.00 | 73 | 1015.9 |
| 20260902160425 | 86 | 236 | 0.0 | 1.0 | 0.00 | 0.00 | 0.00 | 73 | 1015.8 |
| 20260902155925 | 86 | 236 | 0.0 | 3.0 | 0.00 | 0.00 | 0.00 | 73 | 1015.7 |
| 20260902155425 | 86 | 186 | 1.0 | 3.0 | 0.00 | 0.00 | 0.00 | 73 | 1015.7 |
| 20260902154924 | 85 | 19 | 0.0 | 5.0 | 0.00 | 0.00 | 0.00 | 74 | 1015.8 |
| 20260902154425 | 85 | 315 | 0.0 | 5.0 | 0.00 | 0.00 | 0.00 | 73 | 1015.7 |
| 20260902153923 | 85 | 267 | 2.0 | 5.0 | 0.00 | 0.00 | 0.00 | 73 | 1015.6 |
| 20260902153421 | 84 | 177 | 1.0 | 3.0 | 0.00 | 0.00 | 0.00 | 74 | 1015.6 |
| 20260902152921 | 84 | 263 | 2.0 | 4.0 | 0.00 | 0.00 | 0.00 | 74 | 1015.5 |
| 20260902152441 | 84 | 209 | 2.0 | 4.0 | 0.00 | 0.00 | 0.00 | 75 | 1015.5 |
| 20260902151938 | 84 | 178 | 2.0 | 4.0 | 0.00 | 0.00 | 0.00 | 75 | 1015.5 |
| 20260902151439 | 83 | 200 | 2.0 | 4.0 | 0.00 | 0.00 | 0.00 | 75 | 1015.5 |
| 20260902150916 | 83 | 257 | 2.0 | 7.0 | 0.00 | 0.00 | 0.00 | 75 | 1015.5 |
| 20260902150415 | 83 | 247 | 2.0 | 7.0 | 0.00 | 0.00 | 0.00 | 75 | 1015.5 |
| 20260902145914 | 82 | 236 | 2.0 | 6.0 | 0.00 | 0.00 | 0.00 | 77 | 1015.4 |
| 20260902145434 | 82 | 207 | 3.0 | 6.0 | 0.00 | 0.00 | 0.00 | 77 | 1015.5 |
| 20260902144932 | 82 | 258 | 1.0 | 3.0 | 0.00 | 0.00 | 0.00 | 77 | 1015.4 |
| 20260902144430 | 82 | 260 | 1.0 | 4.0 | 0.00 | 0.00 | 0.00 | 78 | 1015.4 |
| 20260902143949 | 81 | 185 | 1.0 | 4.0 | 0.00 | 0.00 | 0.00 | 78 | 1015.5 |
| 20260902143428 | 81 | 245 | 1.0 | 4.0 | 0.00 | 0.00 | 0.00 | 79 | 1015.5 |
| 20260902142943 | 81 | 250 | 1.0 | 4.0 | 0.00 | 0.00 | 0.00 | 79 | 1015.6 |
| 20260902142422 | 81 | 184 | 2.0 | 4.0 | 0.00 | 0.00 | 0.00 | 78 | 1015.5 |
| 20260902141943 | 81 | 259 | 2.0 | 3.0 | 0.00 | 0.00 | 0.00 | 79 | 1015.5 |
| 20260902141423 | 80 | 246 | 1.0 | 3.0 | 0.00 | 0.00 | 0.00 | 79 | 1015.6 |
| 20260902140943 | 80 | 237 | 2.0 | 5.0 | 0.00 | 0.00 | 0.00 | 79 | 1015.6 |
| 20260902140421 | 80 | 171 | 2.0 | 5.0 | 0.00 | 0.00 | 0.00 | 79 | 1015.7 |
| 20260902135940 | 80 | 237 | 1.0 | 3.0 | 0.00 | 0.00 | 0.00 | 80 | 1015.6 |
| 20260902135421 | 80 | 208 | 0.0 | 2.0 | 0.00 | 0.00 | 0.00 | 80 | 1015.7 |
| 20260902134919 | 79 | 272 | 1.0 | 4.0 | 0.00 | 0.00 | 0.00 | 80 | 1015.6 |
| 20260902134420 | 79 | 261 | 1.0 | 4.0 | 0.00 | 0.00 | 0.00 | 80 | 1015.7 |
| 20260902133921 | 79 | 240 | 1.0 | 5.0 | 0.00 | 0.00 | 0.00 | 81 | 1015.8 |
| 20260902133420 | 79 | 196 | 2.0 | 5.0 | 0.00 | 0.00 | 0.00 | 81 | 1015.6 |
| 20260902132921 | 79 | 208 | 1.0 | 3.0 | 0.00 | 0.00 | 0.00 | 81 | 1015.6 |
| 20260902132420 | 78 | 155 | 2.0 | 4.0 | 0.00 | 0.00 | 0.00 | 81 | 1015.7 |
| 20260902131920 | 78 | 247 | 0.0 | 2.0 | 0.00 | 0.00 | 0.00 | 82 | 1015.8 |
| 20260902131420 | 78 | 228 | 1.0 | 3.0 | 0.00 | 0.00 | 0.00 | 82 | 1015.8 |
| 20260902130920 | 78 | 250 | 1.0 | 3.0 | 0.00 | 0.00 | 0.00 | 83 | 1015.8 |
| 20260902130420 | 78 | 239 | 2.0 | 4.0 | 0.00 | 0.00 | 0.00 | 83 | 1015.6 |
| 20260902125920 | 77 | 237 | 2.0 | 3.0 | 0.00 | 0.00 | 0.00 | 84 | 1015.7 |
| 20260902125421 | 77 | 246 | 2.0 | 3.0 | 0.00 | 0.00 | 0.00 | 84 | 1015.6 |
| 20260902124922 | 77 | 196 | 0.0 | 0.0 | 0.00 | 0.00 | 0.00 | 85 | 1015.7 |
| 20260902124421 | 77 | 196 | 0.0 | 2.0 | 0.00 | 0.00 | 0.00 | 86 | 1015.7 |
| 20260902123920 | 76 | 211 | 0.0 | 2.0 | 0.00 | 0.00 | 0.00 | 86 | 1015.7 |
| 20260902123420 | 76 | 236 | 1.0 | 3.0 | 0.00 | 0.00 | 0.00 | 87 | 1015.7 |
| 20260902122941 | 76 | 178 | 1.0 | 4.0 | 0.00 | 0.00 | 0.00 | 88 | 1015.8 |
| 20260902122442 | 76 | 240 | 0.0 | 2.0 | 0.00 | 0.00 | 0.00 | 88 | 1015.9 |
| 20260902121922 | 75 | 241 | 1.0 | 2.0 | 0.00 | 0.00 | 0.00 | 88 | 1015.9 |
| 20260902121421 | 75 | 186 | 1.0 | 4.0 | 0.00 | 0.00 | 0.00 | 89 | 1016.0 |
| 20260902120921 | 75 | 203 | 1.0 | 2.0 | 0.00 | 0.00 | 0.00 | 89 | 1016.0 |
| 20260902120421 | 75 | 227 | 1.0 | 3.0 | 0.00 | 0.00 | 0.00 | 89 | 1015.8 |
| 20260902115919 | 75 | 200 | 1.0 | 3.0 | 0.00 | 0.00 | 0.00 | 89 | 1015.9 |
| 20260902115418 | 75 | 227 | 1.0 | 2.0 | 0.00 | 0.00 | 0.00 | 89 | 1015.9 |
| 20260902114918 | 75 | 190 | 1.0 | 3.0 | 0.00 | 0.00 | 0.00 | 89 | 1015.8 |
| 20260902114419 | 75 | 243 | 1.0 | 3.0 | 0.00 | 0.00 | 0.00 | 89 | 1015.8 |
| 20260902113918 | 75 | 194 | 0.0 | 1.0 | 0.00 | 0.00 | 0.00 | 89 | 1015.8 |
| 20260902113419 | 75 | 217 | 0.0 | 0.0 | 0.00 | 0.00 | 0.00 | 89 | 1015.6 |
| 20260902112916 | 75 | 217 | 0.0 | 0.0 | 0.00 | 0.00 | 0.00 | 89 | 1015.7 |
| 20260902112415 | 75 | 217 | 0.0 | 0.0 | 0.00 | 0.00 | 0.00 | 89 | 1015.6 |
| 20260902111913 | 75 | 217 | 0.0 | 0.0 | 0.00 | 0.00 | 0.00 | 89 | 1015.7 |
| 20260902111413 | 75 | 217 | 0.0 | 0.0 | 0.00 | 0.00 | 0.00 | 89 | 1015.6 |
| 20260902110912 | 75 | 217 | 0.0 | 0.0 | 0.00 | 0.00 | 0.00 | 89 | 1015.7 |
| 20260902110431 | 75 | 217 | 0.0 | 0.0 | 0.00 | 0.00 | 0.00 | 89 | 1015.8 |
| 20260902105930 | 75 | 217 | 0.0 | 0.0 | 0.00 | 0.00 | 0.00 | 88 | 1015.8 |
| 20260902105428 | 75 | 217 | 0.0 | 0.0 | 0.00 | 0.00 | 0.00 | 88 | 1015.6 |
| 20260902104948 | 75 | 217 | 0.0 | 0.0 | 0.00 | 0.00 | 0.00 | 88 | 1015.5 |
| 20260902104446 | 75 | 217 | 0.0 | 0.0 | 0.00 | 0.00 | 0.00 | 88 | 1015.6 |
| 20260902103925 | 76 | 217 | 0.0 | 0.0 | 0.00 | 0.00 | 0.00 | 89 | 1015.5 |
| 20260902103424 | 76 | 217 | 0.0 | 0.0 | 0.00 | 0.00 | 0.00 | 89 | 1015.6 |
| 20260902102923 | 76 | 217 | 0.0 | 0.0 | 0.00 | 0.00 | 0.00 | 89 | 1015.6 |
| 20260902102423 | 76 | 217 | 0.0 | 0.0 | 0.00 | 0.00 | 0.00 | 89 | 1015.7 |
| 20260902101923 | 76 | 217 | 0.0 | 0.0 | 0.00 | 0.00 | 0.00 | 89 | 1015.6 |
| 20260902101424 | 76 | 217 | 0.0 | 0.0 | 0.00 | 0.00 | 0.00 | 89 | 1015.6 |
| 20260902100945 | 76 | 217 | 0.0 | 0.0 | 0.00 | 0.00 | 0.00 | 89 | 1015.6 |
| 20260902100426 | 76 | 217 | 0.0 | 0.0 | 0.00 | 0.00 | 0.00 | 89 | 1015.5 |
| 20260902095945 | 76 | 217 | 0.0 | 0.0 | 0.00 | 0.00 | 0.00 | 89 | 1015.5 |
| 20260902095425 | 76 | 217 | 0.0 | 0.0 | 0.00 | 0.00 | 0.00 | 89 | 1015.6 |
| 20260902094924 | 76 | 217 | 0.0 | 0.0 | 0.00 | 0.00 | 0.00 | 89 | 1015.6 |
| 20260902094422 | 76 | 217 | 0.0 | 0.0 | 0.00 | 0.00 | 0.00 | 89 | 1015.6 |
| 20260902093920 | 76 | 217 | 0.0 | 2.0 | 0.00 | 0.00 | 0.00 | 89 | 1015.6 |
| 20260902093422 | 76 | 217 | 1.0 | 2.0 | 0.00 | 0.00 | 0.00 | 89 | 1015.5 |
| 20260902092937 | 76 | 217 | 0.0 | 2.0 | 0.00 | 0.00 | 0.00 | 88 | 1015.5 |
| 20260902092416 | 76 | 217 | 0.0 | 2.0 | 0.00 | 0.00 | 0.00 | 88 | 1015.6 |
| 20260902091916 | 76 | 217 | 0.0 | 2.0 | 0.00 | 0.00 | 0.00 | 88 | 1015.6 |
| 20260902091416 | 76 | 217 | 1.0 | 3.0 | 0.00 | 0.00 | 0.00 | 89 | 1015.6 |
| 20260902090917 | 76 | 217 | 1.0 | 3.0 | 0.00 | 0.00 | 0.00 | 88 | 1015.5 |
| 20260902090417 | 76 | 232 | 1.0 | 3.0 | 0.00 | 0.00 | 0.00 | 88 | 1015.3 |
| 20260902085916 | 76 | 194 | 1.0 | 3.0 | 0.00 | 0.00 | 0.00 | 88 | 1015.3 |
| 20260902085416 | 77 | 199 | 0.0 | 1.0 | 0.00 | 0.00 | 0.00 | 88 | 1015.2 |
| 20260902084916 | 77 | 199 | 0.0 | 1.0 | 0.00 | 0.00 | 0.00 | 87 | 1015.2 |
| 20260902084416 | 77 | 199 | 0.0 | 0.0 | 0.00 | 0.00 | 0.00 | 87 | 1015.2 |
| 20260902083915 | 77 | 219 | 0.0 | 2.0 | 0.00 | 0.00 | 0.00 | 87 | 1015.2 |
| 20260902083414 | 77 | 219 | 1.0 | 2.0 | 0.00 | 0.00 | 0.00 | 87 | 1015.1 |
| 20260902082916 | 77 | 194 | 0.0 | 2.0 | 0.00 | 0.00 | 0.00 | 87 | 1015.1 |
| 20260902082416 | 77 | 231 | 1.0 | 2.0 | 0.00 | 0.00 | 0.00 | 87 | 1015.1 |
| 20260902081916 | 77 | 223 | 0.0 | 2.0 | 0.00 | 0.00 | 0.00 | 87 | 1015.1 |
| 20260902081415 | 77 | 232 | 1.0 | 2.0 | 0.00 | 0.00 | 0.00 | 87 | 1015.1 |
| 20260902080916 | 77 | 205 | 0.0 | 1.0 | 0.00 | 0.00 | 0.00 | 87 | 1015.1 |
| 20260902080416 | 77 | 205 | 0.0 | 3.0 | 0.00 | 0.00 | 0.00 | 87 | 1015.1 |
| 20260902075915 | 77 | 205 | 1.0 | 3.0 | 0.00 | 0.00 | 0.00 | 86 | 1015.0 |
| 20260902075415 | 77 | 240 | 1.0 | 3.0 | 0.00 | 0.00 | 0.00 | 86 | 1015.2 |
| 20260902074915 | 77 | 245 | 0.0 | 2.0 | 0.00 | 0.00 | 0.00 | 86 | 1015.3 |
| 20260902074415 | 77 | 214 | 0.0 | 2.0 | 0.00 | 0.00 | 0.00 | 86 | 1015.3 |
| 20260902073915 | 77 | 182 | 0.0 | 2.0 | 0.00 | 0.00 | 0.00 | 86 | 1015.2 |
| 20260902073414 | 78 | 205 | 1.0 | 2.0 | 0.00 | 0.00 | 0.00 | 86 | 1015.2 |
| 20260902072934 | 78 | 219 | 1.0 | 2.0 | 0.00 | 0.00 | 0.00 | 86 | 1015.2 |
| 20260902072432 | 78 | 240 | 0.0 | 0.0 | 0.00 | 0.00 | 0.00 | 86 | 1015.2 |
| 20260902071931 | 78 | 197 | 0.0 | 0.0 | 0.00 | 0.00 | 0.00 | 85 | 1015.1 |
| 20260902071428 | 78 | 197 | 0.0 | 0.0 | 0.00 | 0.00 | 0.00 | 85 | 1015.2 |
| 20260902070927 | 78 | 239 | 0.0 | 0.0 | 0.00 | 0.00 | 0.00 | 85 | 1015.2 |
| 20260902070428 | 78 | 239 | 0.0 | 0.0 | 0.00 | 0.00 | 0.00 | 85 | 1015.2 |
| 20260902065928 | 78 | 239 | 0.0 | 0.0 | 0.00 | 0.00 | 0.00 | 85 | 1015.2 |
| 20260902065447 | 78 | 219 | 0.0 | 0.0 | 0.00 | 0.00 | 0.00 | 84 | 1015.2 |
| 20260902064925 | 79 | 219 | 0.0 | 0.0 | 0.00 | 0.00 | 0.00 | 84 | 1015.1 |
| 20260902064425 | 79 | 238 | 0.0 | 0.0 | 0.00 | 0.00 | 0.00 | 84 | 1015.1 |
| 20260902063923 | 79 | 199 | 0.0 | 1.0 | 0.00 | 0.00 | 0.00 | 84 | 1015.0 |
| 20260902063423 | 79 | 246 | 0.0 | 1.0 | 0.00 | 0.00 | 0.00 | 84 | 1015.0 |
| 20260902062921 | 79 | 219 | 0.0 | 1.0 | 0.00 | 0.00 | 0.00 | 84 | 1015.1 |
| 20260902062421 | 79 | 219 | 0.0 | 3.0 | 0.00 | 0.00 | 0.00 | 84 | 1015.1 |
| 20260902061921 | 79 | 209 | 0.0 | 3.0 | 0.00 | 0.00 | 0.00 | 83 | 1015.1 |
| 20260902061507 | 80 | 243 | 0.0 | 0.0 | 0.00 | 0.00 | 0.00 | 83 | 1015.1 |
| 20260902060925 | 80 | 233 | 0.0 | 0.0 | 0.00 | 0.00 | 0.00 | 83 | 1015.1 |
| 20260902060423 | 80 | 233 | 0.0 | 0.0 | 0.00 | 0.00 | 0.00 | 83 | 1015.1 |
| 20260902055923 | 80 | 233 | 0.0 | 0.0 | 0.00 | 0.00 | 0.00 | 83 | 1015.0 |
| 20260902055443 | 80 | 233 | 0.0 | 1.0 | 0.00 | 0.00 | 0.00 | 83 | 1015.0 |
| 20260902054920 | 80 | 233 | 0.0 | 2.0 | 0.00 | 0.00 | 0.00 | 83 | 1015.0 |
| 20260902054420 | 80 | 242 | 0.0 | 2.0 | 0.00 | 0.00 | 0.00 | 82 | 1015.0 |
| 20260902053920 | 80 | 242 | 1.0 | 2.0 | 0.00 | 0.00 | 0.00 | 82 | 1015.0 |
| 20260902053441 | 81 | 225 | 0.0 | 2.0 | 0.00 | 0.00 | 0.00 | 82 | 1015.0 |
| 20260902052920 | 81 | 219 | 0.0 | 2.0 | 0.00 | 0.00 | 0.00 | 82 | 1015.1 |
| 20260902052439 | 81 | 244 | 0.0 | 3.0 | 0.00 | 0.00 | 0.00 | 82 | 1015.0 |
| 20260902051917 | 81 | 246 | 1.0 | 3.0 | 0.00 | 0.00 | 0.00 | 82 | 1015.0 |
| 20260902051415 | 81 | 240 | 1.0 | 3.0 | 0.00 | 0.00 | 0.00 | 82 | 1015.0 |
| 20260902050934 | 81 | 238 | 2.0 | 3.0 | 0.00 | 0.00 | 0.00 | 82 | 1015.0 |
| 20260902050431 | 81 | 221 | 1.0 | 3.0 | 0.00 | 0.00 | 0.00 | 82 | 1015.0 |
| 20260902045930 | 81 | 236 | 1.0 | 4.0 | 0.00 | 0.00 | 0.00 | 82 | 1015.1 |
| 20260902045427 | 82 | 199 | 2.0 | 4.0 | 0.00 | 0.00 | 0.00 | 82 | 1015.1 |
| 20260902044927 | 82 | 255 | 1.0 | 2.0 | 0.00 | 0.00 | 0.00 | 82 | 1015.1 |
| 20260902044426 | 82 | 244 | 0.0 | 3.0 | 0.00 | 0.00 | 0.00 | 82 | 1015.1 |
| 20260902043926 | 82 | 238 | 1.0 | 4.0 | 0.00 | 0.00 | 0.00 | 82 | 1015.1 |
| 20260902043427 | 82 | 204 | 3.0 | 4.0 | 0.00 | 0.00 | 0.00 | 81 | 1015.1 |
| 20260902042925 | 82 | 246 | 1.0 | 4.0 | 0.00 | 0.00 | 0.00 | 81 | 1015.1 |
| 20260902042423 | 82 | 240 | 2.0 | 4.0 | 0.00 | 0.00 | 0.00 | 81 | 1015.1 |
| 20260902041939 | 82 | 229 | 2.0 | 4.0 | 0.00 | 0.00 | 0.00 | 81 | 1015.0 |
| 20260902041438 | 82 | 233 | 2.0 | 4.0 | 0.00 | 0.00 | 0.00 | 81 | 1015.1 |
| 20260902040955 | 82 | 248 | 1.0 | 4.0 | 0.00 | 0.00 | 0.00 | 81 | 1015.0 |
| 20260902040437 | 82 | 247 | 2.0 | 4.0 | 0.00 | 0.00 | 0.00 | 81 | 1015.0 |
| 20260902035947 | 83 | 240 | 2.0 | 4.0 | 0.00 | 0.00 | 0.00 | 81 | 1015.0 |
| 20260902035447 | 83 | 254 | 2.0 | 4.0 | 0.00 | 0.00 | 0.00 | 81 | 1015.1 |
| 20260902034924 | 83 | 251 | 2.0 | 4.0 | 0.00 | 0.00 | 0.00 | 81 | 1015.1 |
| 20260902034426 | 83 | 229 | 2.0 | 3.0 | 0.00 | 0.00 | 0.00 | 81 | 1015.1 |
| 20260902033924 | 83 | 248 | 1.0 | 4.0 | 0.00 | 0.00 | 0.00 | 81 | 1015.2 |
| 20260902033422 | 83 | 239 | 1.0 | 4.0 | 0.00 | 0.00 | 0.00 | 81 | 1015.1 |
| 20260902032922 | 83 | 255 | 2.0 | 3.0 | 0.00 | 0.00 | 0.00 | 81 | 1015.1 |
| 20260902032442 | 83 | 192 | 2.0 | 3.0 | 0.00 | 0.00 | 0.00 | 81 | 1015.1 |
| 20260902031921 | 83 | 234 | 2.0 | 3.0 | 0.00 | 0.00 | 0.00 | 81 | 1015.1 |
| 20260902031421 | 83 | 261 | 2.0 | 3.0 | 0.00 | 0.00 | 0.00 | 81 | 1015.1 |
| 20260902030921 | 83 | 230 | 2.0 | 3.0 | 0.00 | 0.00 | 0.00 | 81 | 1015.1 |
| 20260902030422 | 83 | 225 | 2.0 | 4.0 | 0.00 | 0.00 | 0.00 | 81 | 1015.1 |
| 20260902025943 | 84 | 236 | 2.0 | 4.0 | 0.00 | 0.00 | 0.00 | 81 | 1015.1 |
| 20260902025420 | 84 | 241 | 2.0 | 4.0 | 0.00 | 0.00 | 0.00 | 81 | 1015.1 |
| 20260902024920 | 84 | 244 | 2.0 | 3.0 | 0.00 | 0.00 | 0.00 | 81 | 1015.2 |
| 20260902024421 | 84 | 255 | 1.0 | 4.0 | 0.00 | 0.00 | 0.00 | 81 | 1015.1 |
| 20260902023920 | 84 | 257 | 2.0 | 4.0 | 0.00 | 0.00 | 0.00 | 81 | 1015.0 |
| 20260902023420 | 84 | 215 | 2.0 | 4.0 | 0.00 | 0.00 | 0.00 | 81 | 1015.0 |
| 20260902022919 | 84 | 262 | 2.0 | 7.0 | 0.00 | 0.00 | 0.00 | 80 | 1015.0 |
| 20260902022430 | 84 | 250 | 1.0 | 7.0 | 0.00 | 0.00 | 0.00 | 80 | 1014.9 |
| 20260902021931 | 84 | 242 | 1.0 | 3.0 | 0.00 | 0.00 | 0.00 | 80 | 1014.8 |
| 20260902021431 | 84 | 257 | 2.0 | 3.0 | 0.00 | 0.00 | 0.00 | 80 | 1014.8 |
| 20260902020932 | 84 | 225 | 1.0 | 3.0 | 0.00 | 0.00 | 0.00 | 80 | 1014.8 |
| 20260902020453 | 85 | 200 | 1.0 | 2.0 | 0.00 | 0.01 | 0.00 | 80 | 1014.8 |
| 20260902015915 | 85 | 239 | 0.0 | 4.0 | 0.00 | 0.01 | 0.00 | 80 | 1014.8 |
| 20260902015444 | 85 | 173 | 1.0 | 4.0 | 0.00 | 0.01 | 0.00 | 80 | 1014.7 |
| 20260902014924 | 85 | 199 | 0.0 | 3.0 | 0.00 | 0.01 | 0.00 | 79 | 1014.7 |
| 20260902014425 | 85 | 231 | 1.0 | 3.0 | 0.00 | 0.01 | 0.00 | 79 | 1014.7 |
| 20260902013924 | 85 | 193 | 2.0 | 3.0 | 0.00 | 0.01 | 0.00 | 79 | 1014.8 |
| 20260902013444 | 85 | 165 | 1.0 | 4.0 | 0.00 | 0.01 | 0.00 | 79 | 1014.8 |
| 20260902012921 | 85 | 223 | 0.0 | 4.0 | 0.00 | 0.01 | 0.00 | 79 | 1014.7 |
| 20260902012421 | 85 | 228 | 1.0 | 3.0 | 0.00 | 0.01 | 0.00 | 79 | 1014.7 |
| 20260902011920 | 85 | 227 | 0.0 | 3.0 | 0.00 | 0.01 | 0.00 | 79 | 1014.8 |
| 20260902011439 | 85 | 217 | 1.0 | 3.0 | 0.00 | 0.01 | 0.00 | 79 | 1014.7 |
| 20260902010916 | 85 | 237 | 1.0 | 3.0 | 0.00 | 0.01 | 0.00 | 78 | 1014.6 |
| 20260902010437 | 85 | 191 | 0.0 | 3.0 | 0.00 | 0.01 | 0.00 | 78 | 1014.7 |
| 20260902005915 | 85 | 163 | 0.0 | 3.0 | 0.00 | 0.01 | 0.00 | 78 | 1014.7 |
| 20260902005415 | 86 | 179 | 1.0 | 2.0 | 0.00 | 0.01 | 0.00 | 78 | 1014.6 |
| 20260902004943 | 86 | 186 | 0.0 | 1.0 | 0.00 | 0.01 | 0.00 | 78 | 1014.7 |
| 20260902004421 | 86 | 173 | 0.0 | 1.0 | 0.00 | 0.01 | 0.00 | 77 | 1014.7 |
| 20260902003921 | 86 | 189 | 0.0 | 0.0 | 0.00 | 0.01 | 0.00 | 77 | 1014.7 |
| 20260902003419 | 86 | 180 | 0.0 | 0.0 | 0.00 | 0.01 | 0.00 | 77 | 1014.7 |
| 20260902002919 | 86 | 180 | 0.0 | 2.0 | 0.00 | 0.01 | 0.00 | 77 | 1014.8 |
| 20260902002418 | 87 | 202 | 0.0 | 2.0 | 0.00 | 0.01 | 0.00 | 77 | 1014.8 |
| 20260902001918 | 87 | 202 | 0.0 | 1.0 | 0.00 | 0.01 | 0.00 | 77 | 1014.8 |
| 20260902001418 | 87 | 202 | 0.0 | 1.0 | 0.00 | 0.01 | 0.00 | 77 | 1014.7 |
| 20260902000916 | 87 | 202 | 0.0 | 1.0 | 0.00 | 0.01 | 0.00 | 77 | 1014.8 |
| 20260902000415 | 87 | 202 | 0.0 | 1.0 | 0.00 | 0.01 | 0.00 | 77 | 1014.7 |
| 20260901235935 | 87 | 202 | 0.0 | 1.0 | 0.00 | 0.01 | 0.00 | 76 | 1014.7 |
| 20260901235453 | 88 | 203 | 0.0 | 1.0 | 0.00 | 0.01 | 0.00 | 76 | 1014.8 |
| 20260901234932 | 88 | 202 | 0.0 | 0.0 | 0.00 | 0.01 | 0.00 | 75 | 1014.9 |
| 20260901234431 | 88 | 203 | 0.0 | 0.0 | 0.00 | 0.01 | 0.00 | 75 | 1014.9 |
| 20260901233936 | 88 | 202 | 0.0 | 0.0 | 0.00 | 0.01 | 0.00 | 75 | 1014.9 |
| 20260901233414 | 88 | 203 | 0.0 | 0.0 | 0.00 | 0.01 | 0.00 | 74 | 1015.0 |
| 20260901232914 | 88 | 203 | 0.0 | 0.0 | 0.00 | 0.01 | 0.00 | 74 | 1015.0 |
| 20260901232433 | 88 | 203 | 0.0 | 0.0 | 0.00 | 0.01 | 0.00 | 74 | 1015.0 |
| 20260901231933 | 88 | 203 | 0.0 | 1.0 | 0.00 | 0.01 | 0.00 | 73 | 1015.0 |
| 20260901231432 | 88 | 203 | 0.0 | 2.0 | 0.00 | 0.01 | 0.00 | 73 | 1015.0 |
| 20260901230932 | 88 | 203 | 0.0 | 3.0 | 0.00 | 0.01 | 0.00 | 73 | 1015.0 |
| 20260901230423 | 88 | 197 | 1.0 | 3.0 | 0.00 | 0.01 | 0.00 | 73 | 1015.0 |
| 20260901225943 | 89 | 242 | 0.0 | 2.0 | 0.00 | 0.01 | 0.00 | 73 | 1015.0 |
| 20260901225420 | 89 | 242 | 0.0 | 3.0 | 0.00 | 0.01 | 0.00 | 72 | 1015.0 |
| 20260901224921 | 89 | 191 | 0.0 | 3.0 | 0.00 | 0.01 | 0.00 | 72 | 1015.1 |
| 20260901224419 | 89 | 167 | 1.0 | 3.0 | 0.00 | 0.01 | 0.00 | 72 | 1015.0 |
| 20260901223919 | 89 | 206 | 1.0 | 2.0 | 0.00 | 0.01 | 0.00 | 71 | 1015.0 |
| 20260901223419 | 89 | 228 | 0.0 | 3.0 | 0.00 | 0.01 | 0.00 | 71 | 1015.0 |
| 20260901222917 | 89 | 220 | 2.0 | 3.0 | 0.00 | 0.01 | 0.00 | 71 | 1015.0 |
| 20260901222418 | 89 | 228 | 2.0 | 3.0 | 0.00 | 0.01 | 0.00 | 71 | 1015.0 |
| 20260901221939 | 89 | 223 | 2.0 | 3.0 | 0.00 | 0.01 | 0.00 | 71 | 1015.1 |
| 20260901221415 | 89 | 243 | 1.0 | 3.0 | 0.00 | 0.01 | 0.00 | 71 | 1015.0 |
| 20260901220936 | 89 | 235 | 2.0 | 3.0 | 0.00 | 0.01 | 0.00 | 70 | 1015.1 |
| 20260901220435 | 90 | 221 | 1.0 | 4.0 | 0.00 | 0.01 | 0.00 | 70 | 1015.0 |
| 20260901215954 | 90 | 215 | 1.0 | 4.0 | 0.00 | 0.01 | 0.00 | 70 | 1014.9 |
| 20260901215431 | 90 | 223 | 1.0 | 5.0 | 0.00 | 0.01 | 0.00 | 70 | 1015.0 |
| 20260901214932 | 90 | 250 | 2.0 | 5.0 | 0.00 | 0.01 | 0.00 | 70 | 1015.0 |
| 20260901214430 | 90 | 231 | 1.0 | 6.0 | 0.00 | 0.01 | 0.00 | 70 | 1014.9 |
| 20260901213931 | 90 | 213 | 2.0 | 6.0 | 0.00 | 0.01 | 0.00 | 69 | 1014.8 |
| 20260901213427 | 90 | 240 | 2.0 | 6.0 | 0.00 | 0.01 | 0.00 | 70 | 1014.8 |
| 20260901212927 | 90 | 182 | 2.0 | 6.0 | 0.00 | 0.01 | 0.00 | 69 | 1014.8 |
| 20260901212445 | 90 | 191 | 2.0 | 5.0 | 0.00 | 0.01 | 0.00 | 69 | 1014.9 |
| 20260901211923 | 90 | 228 | 2.0 | 6.0 | 0.00 | 0.01 | 0.00 | 69 | 1015.0 |
| 20260901211423 | 90 | 213 | 3.0 | 6.0 | 0.00 | 0.01 | 0.00 | 69 | 1014.9 |
| 20260901210921 | 90 | 219 | 2.0 | 5.0 | 0.00 | 0.01 | 0.00 | 69 | 1014.9 |
| 20260901210421 | 90 | 253 | 2.0 | 6.0 | 0.00 | 0.01 | 0.00 | 68 | 1014.9 |
| 20260901205917 | 90 | 221 | 2.0 | 7.0 | 0.00 | 0.01 | 0.00 | 70 | 1014.9 |
| 20260901205416 | 90 | 171 | 2.0 | 7.0 | 0.00 | 0.01 | 0.00 | 71 | 1014.9 |
| 20260901204916 | 90 | 176 | 2.0 | 6.0 | 0.00 | 0.01 | 0.00 | 70 | 1014.9 |
| 20260901204416 | 90 | 165 | 2.0 | 6.0 | 0.00 | 0.01 | 0.00 | 71 | 1015.0 |
| 20260901203915 | 90 | 226 | 3.0 | 6.0 | 0.00 | 0.01 | 0.00 | 70 | 1015.0 |
| 20260901203414 | 90 | 217 | 3.0 | 5.0 | 0.00 | 0.01 | 0.00 | 70 | 1015.1 |
| 20260901202935 | 90 | 187 | 1.0 | 7.0 | 0.00 | 0.01 | 0.00 | 70 | 1015.0 |
| 20260901202432 | 90 | 225 | 2.0 | 7.0 | 0.00 | 0.01 | 0.00 | 71 | 1015.0 |
| 20260901201932 | 90 | 228 | 2.0 | 7.0 | 0.00 | 0.01 | 0.00 | 71 | 1015.0 |
| 20260901201432 | 90 | 217 | 3.0 | 5.0 | 0.00 | 0.01 | 0.00 | 71 | 1014.9 |
| 20260901200931 | 90 | 187 | 2.0 | 6.0 | 0.00 | 0.01 | 0.00 | 70 | 1015.0 |
| 20260901200429 | 90 | 190 | 3.0 | 6.0 | 0.00 | 0.01 | 0.00 | 72 | 1015.0 |
| 20260901195949 | 89 | 210 | 1.0 | 5.0 | 0.00 | 0.01 | 0.00 | 73 | 1015.0 |
| 20260901195426 | 89 | 165 | 2.0 | 4.0 | 0.00 | 0.01 | 0.00 | 74 | 1015.0 |
| 20260901194946 | 89 | 235 | 1.0 | 3.0 | 0.00 | 0.01 | 0.00 | 74 | 1015.2 |
| 20260901194424 | 89 | 215 | 0.0 | 3.0 | 0.00 | 0.01 | 0.00 | 74 | 1015.2 |
| 20260901193923 | 89 | 218 | 0.0 | 3.0 | 0.00 | 0.01 | 0.00 | 75 | 1015.4 |
| 20260901193421 | 88 | 136 | 0.0 | 3.0 | 0.00 | 0.01 | 0.00 | 74 | 1015.4 |
| 20260901192920 | 88 | 183 | 0.0 | 3.0 | 0.00 | 0.01 | 0.00 | 75 | 1015.5 |
| 20260901192419 | 88 | 246 | 0.0 | 4.0 | 0.00 | 0.01 | 0.00 | 75 | 1015.6 |
| 20260901191919 | 88 | 246 | 1.0 | 5.0 | 0.00 | 0.01 | 0.00 | 74 | 1015.7 |
| 20260901191418 | 88 | 127 | 1.0 | 3.0 | 0.00 | 0.01 | 0.00 | 75 | 1015.7 |
| 20260901190917 | 88 | 36 | 0.0 | 4.0 | 0.00 | 0.01 | 0.00 | 75 | 1015.8 |
| 20260901190416 | 88 | 217 | 2.0 | 4.0 | 0.00 | 0.01 | 0.00 | 75 | 1015.9 |
| 20260901185916 | 88 | 216 | 0.0 | 1.0 | 0.00 | 0.01 | 0.00 | 76 | 1015.9 |
| 20260901185415 | 88 | 271 | 0.0 | 3.0 | 0.00 | 0.01 | 0.00 | 75 | 1015.9 |
| 20260901184915 | 88 | 215 | 1.0 | 5.0 | 0.00 | 0.01 | 0.00 | 75 | 1016.0 |
| 20260901184416 | 88 | 219 | 2.0 | 5.0 | 0.00 | 0.01 | 0.00 | 75 | 1016.0 |
| 20260901183917 | 88 | 342 | 0.0 | 2.0 | 0.00 | 0.01 | 0.00 | 76 | 1016.0 |
| 20260901183418 | 87 | 215 | 1.0 | 3.0 | 0.00 | 0.01 | 0.00 | 76 | 1016.0 |
| 20260901182917 | 87 | 193 | 1.0 | 4.0 | 0.00 | 0.01 | 0.00 | 76 | 1015.8 |
| 20260901182518 | 87 | 221 | 2.0 | 4.0 | 0.00 | 0.01 | 0.00 | 75 | 1015.9 |
| 20260901181928 | 87 | 221 | 2.0 | 4.0 | 0.00 | 0.01 | 0.00 | 75 | 1015.9 |
| 20260901181427 | 87 | 164 | 1.0 | 4.0 | 0.00 | 0.01 | 0.00 | 76 | 1015.9 |
| 20260901180926 | 87 | 203 | 1.0 | 5.0 | 0.00 | 0.01 | 0.00 | 75 | 1015.8 |
| 20260901180446 | 87 | 180 | 2.0 | 5.0 | 0.00 | 0.01 | 0.00 | 75 | 1015.9 |
| 20260901175924 | 87 | 247 | 2.0 | 5.0 | 0.00 | 0.01 | 0.00 | 74 | 1016.1 |
| 20260901175444 | 88 | 240 | 2.0 | 5.0 | 0.00 | 0.01 | 0.00 | 74 | 1015.8 |
| 20260901174922 | 88 | 238 | 1.0 | 5.0 | 0.00 | 0.01 | 0.00 | 74 | 1015.8 |
| 20260901174423 | 88 | 222 | 1.0 | 5.0 | 0.00 | 0.01 | 0.00 | 74 | 1015.7 |
| 20260901173921 | 88 | 186 | 2.0 | 5.0 | 0.00 | 0.01 | 0.00 | 73 | 1015.8 |
| 20260901173420 | 88 | 269 | 2.0 | 4.0 | 0.00 | 0.01 | 0.00 | 75 | 1015.7 |
| 20260901172917 | 87 | 259 | 3.0 | 4.0 | 0.00 | 0.01 | 0.00 | 74 | 1015.7 |
| 20260901172419 | 87 | 228 | 0.0 | 3.0 | 0.00 | 0.01 | 0.00 | 74 | 1015.8 |
| 20260901171917 | 87 | 277 | 2.0 | 4.0 | 0.00 | 0.01 | 0.00 | 75 | 1015.8 |
| 20260901171416 | 87 | 194 | 2.0 | 4.0 | 0.00 | 0.01 | 0.00 | 75 | 1015.7 |
| 20260901170916 | 87 | 309 | 0.0 | 4.0 | 0.00 | 0.01 | 0.00 | 74 | 1015.7 |
| 20260901170417 | 86 | 271 | 2.0 | 4.0 | 0.00 | 0.01 | 0.00 | 74 | 1015.6 |
| 20260901165916 | 86 | 223 | 3.0 | 4.0 | 0.00 | 0.01 | 0.00 | 76 | 1015.7 |
| 20260901165414 | 86 | 175 | 1.0 | 6.0 | 0.00 | 0.01 | 0.00 | 76 | 1015.6 |
| 20260901164914 | 86 | 211 | 2.0 | 6.0 | 0.00 | 0.01 | 0.00 | 76 | 1015.5 |
| 20260901164433 | 86 | 251 | 2.0 | 4.0 | 0.00 | 0.01 | 0.00 | 75 | 1015.6 |
| 20260901163951 | 85 | 228 | 2.0 | 4.0 | 0.00 | 0.01 | 0.00 | 76 | 1015.7 |
| 20260901163428 | 85 | 221 | 0.0 | 3.0 | 0.00 | 0.01 | 0.00 | 77 | 1015.9 |
| 20260901162927 | 85 | 253 | 1.0 | 4.0 | 0.00 | 0.01 | 0.00 | 76 | 1015.8 |
| 20260901162427 | 85 | 224 | 2.0 | 4.0 | 0.00 | 0.01 | 0.00 | 75 | 1015.7 |
| 20260901161926 | 85 | 194 | 1.0 | 4.0 | 0.00 | 0.01 | 0.00 | 76 | 1015.7 |
| 20260901161423 | 84 | 198 | 1.0 | 4.0 | 0.00 | 0.01 | 0.00 | 78 | 1015.8 |